Location: Brno
(49.2000°N, 16.6330°E)
Time: 03:22:04
(UTC+01:00)

Cosmos 332 Rocket - Visible Passes

Search period start: 18 December 2014 00:00
Search period end: 28 December 2014 00:00
Orbit: 684 x 706 km, 74.0° (Epoch: 16 December)

Date Brightness Start Highest point End Pass type
(mag) Time Alt. Az. Time Alt. Az. Time Alt. Az.
18 Dec 6.4 04:47:15 10° N 04:49:53 14° NE 04:52:29 10° ENE visible
18 Dec 4.0 06:26:25 10° NNW 06:31:17 75° ENE 06:36:05 10° SSE visible
19 Dec 5.4 05:28:03 11° N 05:32:14 32° NE 05:36:31 10° ESE visible
20 Dec 6.3 04:30:33 12° NNE 04:32:48 16° NE 04:35:41 10° E visible
20 Dec 3.8 06:09:19 10° NNW 06:14:07 83° ENE 06:18:55 10° SSE visible
21 Dec 5.2 05:11:52 17° N 05:15:06 35° ENE 05:19:29 10° ESE visible
21 Dec 4.5 06:51:13 10° NW 06:55:35 35° WSW 06:59:54 10° SSW visible
22 Dec 6.2 04:14:29 16° NNE 04:15:43 17° NE 04:18:50 10° E visible
22 Dec 3.7 05:53:14 17° NNW 05:56:56 88° WSW 06:01:44 10° SSE visible
23 Dec 5.0 04:55:54 26° N 04:57:57 38° ENE 05:02:26 10° SE visible
23 Dec 4.6 06:34:40 13° NW 06:38:21 31° WSW 06:42:32 10° SSW visible
24 Dec 6.2 03:58:38 18° NE 03:58:38 18° NE 04:01:57 10° E visible
24 Dec 3.6 05:37:24 31° NNW 05:39:45 80° WSW 05:44:32 10° SSE visible
25 Dec 4.8 04:40:13 40° NE 04:40:48 42° ENE 04:45:22 10° SE visible
25 Dec 4.7 06:18:59 20° WNW 06:21:06 28° W 06:25:09 10° SSW visible
26 Dec 6.4 03:43:05 17° ENE 03:43:05 17° ENE 03:45:02 10° E visible
26 Dec 3.6 05:21:52 61° WNW 05:22:32 71° WSW 05:27:18 10° SSE visible
27 Dec 5.0 04:24:49 38° E 04:24:49 38° E 04:28:15 10° SE visible
27 Dec 4.8 06:03:37 25° W 06:03:51 25° W 06:07:43 10° SSW visible
27 Dec 5.7 18:46:40 10° S 18:48:01 18° S 18:48:01 18° S visible
